Location: Unspecified
(40.7945°N, 0.0000°E)
Time: 02:49:41
(UTC+00:00)

Altair - Pass Details

Date: 29 January 2021
Orbit: 1501 x 1682 km, 47.2° (Epoch: 01 March)

Event Time Altitude Azimuth Distance (km) Brightness Sun altitude
Rises 02:51:18 0° 218° (SW) 4,784 - -49.1°
Reaches altitude 10° 02:54:25 10° 214° (SW) 3,825 - -48.6°
Maximum altitude 03:03:54 56° 139° (SE) 1,912 - -46.9°
Exits shadow 03:06:11 48° 99° (E) 2,086 8.2 -46.5°
Drops below altitude 10° 03:13:40 10° 65° (ENE) 3,942 10.2 -45.1°
Sets 03:16:55 0° 62° (ENE) 4,938 10.9 -44.6°
